DLH229 EDDH-KEWR

Flight info

Callsign DLH229
Flight time 7h 50m
Altitude 34000
Route WSN5G WSN N125 PREXA DCT RAVLO Y70 OTBED L60 PENIL UL70 BAGSO DCT MOLAK/N0469F360 DCT RESNO/M082F360 NATC LOMSI/N0468F360 N668A TAFFY/N0460F380 DCT KJOHN DCT HANAA FLOSI4
Aircraft A333/H-SDE3GHIJ2J3J5M1RVWXY/LB2D1

Departure

Time 2026-05-05 12:01
Airport Hamburg Helmut Schmidt Airport (EDDH)

Arrival

Time 2026-05-05 19:52
Airport Newark Liberty International Airport (KEWR)
Time Latitude Longitude Altitude Speed Heading
2026-05-05 11:24 53.63373 10.00321 50 ft 0 kts 86°
2026-05-05 11:53 53.63373 10.00313 50 ft 3 kts 86°
2026-05-05 11:53 53.63371 10.00281 43 ft 3 kts 66°
2026-05-05 11:53 53.63367 10.00248 44 ft 3 kts 111°
2026-05-05 11:54 53.63377 10.00222 44 ft 3 kts 156°
2026-05-05 11:54 53.63387 10.00216 45 ft 0 kts 175°
2026-05-05 11:55 53.63382 10.00215 44 ft 2 kts 180°
2026-05-05 11:55 53.63364 10.00214 47 ft 3 kts 182°
2026-05-05 11:55 53.63338 10.00210 49 ft 4 kts 187°
2026-05-05 11:56 53.63304 10.00206 49 ft 5 kts 181°
2026-05-05 11:56 53.63264 10.00206 44 ft 6 kts 179°
2026-05-05 11:56 53.63217 10.00209 49 ft 7 kts 178°
2026-05-05 11:56 53.63166 10.00215 49 ft 7 kts 174°
2026-05-05 11:57 53.63115 10.00222 47 ft 7 kts 177°
2026-05-05 11:57 53.63067 10.00208 49 ft 7 kts 200°
2026-05-05 11:57 53.63026 10.00172 49 ft 6 kts 210°
2026-05-05 11:57 53.62984 10.00128 48 ft 8 kts 212°
2026-05-05 11:58 53.62925 10.00067 48 ft 11 kts 207°
2026-05-05 11:58 53.62849 10.00072 47 ft 11 kts 161°
2026-05-05 11:58 53.62806 10.00105 50 ft 10 kts 154°
2026-05-05 11:58 53.62725 10.00175 46 ft 10 kts 152°
2026-05-05 11:59 53.62664 10.00228 47 ft 10 kts 152°
2026-05-05 11:59 53.62607 10.00257 47 ft 7 kts 190°
2026-05-05 11:59 53.62574 10.00208 47 ft 6 kts 237°
2026-05-05 11:59 53.62554 10.00138 50 ft 8 kts 251°
2026-05-05 12:00 53.62553 10.00067 51 ft 10 kts 284°
2026-05-05 12:00 53.62634 9.99954 46 ft 29 kts 332°
2026-05-05 12:00 53.62990 9.99643 48 ft 87 kts 333°
2026-05-05 12:00 53.63692 9.99039 47 ft 139 kts 333°
2026-05-05 12:01 53.64700 9.98192 122 ft 180 kts 334°
2026-05-05 12:01 53.65828 9.97112 667 ft 191 kts 331°
2026-05-05 12:01 53.66945 9.95851 1470 ft 191 kts 327°
2026-05-05 12:01 53.68008 9.94622 2235 ft 180 kts 328°
2026-05-05 12:02 53.69066 9.93408 2639 ft 188 kts 328°
2026-05-05 12:02 53.70166 9.92135 3038 ft 195 kts 327°
2026-05-05 12:02 53.71097 9.90433 3454 ft 206 kts 295°
2026-05-05 12:02 53.71349 9.88005 3825 ft 218 kts 266°
2026-05-05 12:03 53.70896 9.85524 4221 ft 229 kts 245°
2026-05-05 12:03 53.70163 9.83050 4568 ft 243 kts 243°
2026-05-05 12:03 53.69365 9.80465 4931 ft 254 kts 244°
2026-05-05 12:03 53.68615 9.77673 5003 ft 277 kts 248°
2026-05-05 12:04 53.67872 9.74628 5624 ft 274 kts 249°
2026-05-05 12:04 53.67193 9.71716 6619 ft 260 kts 250°
2026-05-05 12:04 53.66664 9.68853 7420 ft 256 kts 256°
2026-05-05 12:04 53.66263 9.65891 7893 ft 263 kts 258°
2026-05-05 12:05 53.65907 9.62831 8405 ft 269 kts 259°
2026-05-05 12:05 53.65541 9.59710 8948 ft 274 kts 257°
2026-05-05 12:05 53.65028 9.56598 9499 ft 277 kts 248°
2026-05-05 12:05 53.64006 9.53871 9956 ft 276 kts 232°
2026-05-05 12:06 53.62757 9.51332 10268 ft 289 kts 231°
2026-05-05 12:06 53.61461 9.48642 10463 ft 303 kts 232°
2026-05-05 12:06 53.60139 9.45765 10677 ft 318 kts 233°
2026-05-05 12:06 53.58783 9.42722 10897 ft 332 kts 234°
2026-05-05 12:07 53.57405 9.39576 11096 ft 345 kts 234°
2026-05-05 12:07 53.55965 9.36265 11345 ft 357 kts 234°
2026-05-05 12:07 53.54485 9.32849 11766 ft 363 kts 234°
2026-05-05 12:07 53.52989 9.29394 12269 ft 367 kts 234°
2026-05-05 12:08 53.51480 9.25911 12791 ft 370 kts 234°
2026-05-05 12:08 53.49960 9.22404 13308 ft 373 kts 234°
2026-05-05 12:08 53.48427 9.18871 13832 ft 376 kts 234°
2026-05-05 12:08 53.46879 9.15308 14293 ft 378 kts 235°
2026-05-05 12:09 53.45330 9.11747 14806 ft 379 kts 235°
2026-05-05 12:09 53.43770 9.08166 15294 ft 381 kts 235°
2026-05-05 12:09 53.42204 9.04576 15785 ft 383 kts 235°
2026-05-05 12:09 53.40628 9.00967 16305 ft 384 kts 235°
2026-05-05 12:10 53.39041 8.97337 16669 ft 389 kts 235°
2026-05-05 12:10 53.37433 8.93666 17060 ft 392 kts 235°
2026-05-05 12:10 53.35821 8.89973 17573 ft 393 kts 237°
2026-05-05 12:10 53.34429 8.86037 18080 ft 393 kts 245°
2026-05-05 12:11 53.33307 8.81852 18500 ft 395 kts 249°
2026-05-05 12:11 53.32326 8.77562 18886 ft 396 kts 251°
2026-05-05 12:11 53.31404 8.73209 19261 ft 398 kts 251°
2026-05-05 12:11 53.30496 8.68843 19637 ft 400 kts 251°
2026-05-05 12:12 53.29571 8.64425 20015 ft 402 kts 251°
2026-05-05 12:12 53.28637 8.60016 20385 ft 404 kts 251°
2026-05-05 12:12 53.27686 8.55593 20752 ft 405 kts 250°
2026-05-05 12:12 53.26726 8.51169 21111 ft 407 kts 251°
2026-05-05 12:13 53.25802 8.46683 21475 ft 408 kts 252°
2026-05-05 12:13 53.24929 8.42160 21829 ft 410 kts 252°
2026-05-05 12:13 53.24077 8.37605 22183 ft 412 kts 253°
2026-05-05 12:13 53.23230 8.33031 22530 ft 414 kts 253°
2026-05-05 12:14 53.22376 8.28433 22876 ft 415 kts 252°
2026-05-05 12:14 53.21513 8.23824 23217 ft 417 kts 252°
2026-05-05 12:14 53.20651 8.19257 23549 ft 419 kts 252°
2026-05-05 12:14 53.19771 8.14623 23860 ft 420 kts 252°
2026-05-05 12:15 53.18886 8.09975 24183 ft 421 kts 252°
2026-05-05 12:15 53.18006 8.05321 24494 ft 422 kts 252°
2026-05-05 12:15 53.17125 8.00655 24801 ft 422 kts 252°
2026-05-05 12:15 53.16243 7.95983 25115 ft 423 kts 252°
2026-05-05 12:16 53.15356 7.91295 25414 ft 424 kts 252°
2026-05-05 12:16 53.14466 7.86608 25715 ft 425 kts 252°
2026-05-05 12:16 53.13572 7.81908 26010 ft 426 kts 252°
2026-05-05 12:16 53.12673 7.77196 26305 ft 427 kts 252°
2026-05-05 12:17 53.11770 7.72481 26603 ft 428 kts 252°
2026-05-05 12:17 53.10864 7.67756 26890 ft 429 kts 252°
2026-05-05 12:17 53.09952 7.63023 27174 ft 430 kts 252°
2026-05-05 12:17 53.09036 7.58282 27435 ft 432 kts 252°
2026-05-05 12:18 53.08112 7.53518 27715 ft 433 kts 251°
2026-05-05 12:18 53.07186 7.48754 28000 ft 434 kts 251°
2026-05-05 12:18 53.06255 7.43976 28265 ft 435 kts 251°
2026-05-05 12:18 53.05322 7.39198 28531 ft 436 kts 251°
2026-05-05 12:19 53.04384 7.34403 28797 ft 437 kts 251°
2026-05-05 12:19 53.03443 7.29609 29179 ft 435 kts 251°
2026-05-05 12:19 53.02507 7.24848 29507 ft 434 kts 251°
2026-05-05 12:19 53.01562 7.20072 29727 ft 435 kts 251°
2026-05-05 12:20 53.00605 7.15312 30058 ft 434 kts 251°
2026-05-05 12:20 52.99643 7.10571 30420 ft 432 kts 250°
2026-05-05 12:20 52.98679 7.05851 30690 ft 432 kts 250°
2026-05-05 12:20 52.97713 7.01138 30962 ft 431 kts 250°
2026-05-05 12:21 52.96749 6.96435 31223 ft 430 kts 250°
2026-05-05 12:21 52.95786 6.91750 31510 ft 429 kts 250°
2026-05-05 12:21 52.94823 6.87070 31809 ft 428 kts 250°
2026-05-05 12:21 52.93863 6.82411 32067 ft 427 kts 250°
2026-05-05 12:22 52.92901 6.77753 32326 ft 426 kts 250°
2026-05-05 12:22 52.91941 6.73117 32599 ft 425 kts 249°
2026-05-05 12:22 52.90980 6.68485 32861 ft 424 kts 249°
2026-05-05 12:22 52.90020 6.63868 33080 ft 424 kts 249°
2026-05-05 12:23 52.89060 6.59262 33340 ft 423 kts 249°
2026-05-05 12:23 52.88098 6.54655 33471 ft 424 kts 249°
2026-05-05 12:23 52.86150 6.45372 33728 ft 427 kts 249°
2026-05-05 12:24 52.85174 6.40732 33983 ft 426 kts 249°
2026-05-05 12:24 52.84214 6.36173 34144 ft 426 kts 249°
2026-05-05 12:24 52.83239 6.31556 34316 ft 425 kts 249°
2026-05-05 12:24 52.82253 6.26890 34506 ft 424 kts 249°
2026-05-05 12:25 52.81292 6.22352 34614 ft 425 kts 249°
2026-05-05 12:25 52.80313 6.17743 34722 ft 426 kts 249°
2026-05-05 12:25 52.79332 6.13127 34825 ft 426 kts 249°
2026-05-05 12:25 52.78345 6.08500 34948 ft 427 kts 249°
2026-05-05 12:26 52.77357 6.03875 35090 ft 428 kts 249°
2026-05-05 12:26 52.76360 5.99217 35013 ft 433 kts 249°
2026-05-05 12:26 52.74343 5.89816 35232 ft 434 kts 249°
2026-05-05 12:27 52.73440 5.85061 35372 ft 435 kts 255°
2026-05-05 12:27 52.72899 5.80144 35480 ft 438 kts 262°
2026-05-05 12:27 52.72671 5.75130 35593 ft 439 kts 264°
2026-05-05 12:27 52.72540 5.70097 35718 ft 440 kts 265°
2026-05-05 12:28 52.72400 5.60000 35898 ft 441 kts 266°
2026-05-05 12:28 52.72277 5.49836 35948 ft 445 kts 266°
2026-05-05 12:29 52.72124 5.39625 35947 ft 445 kts 266°
2026-05-05 12:29 52.71947 5.29411 35947 ft 445 kts 266°
2026-05-05 12:30 52.71757 5.19205 35953 ft 445 kts 266°
2026-05-05 12:30 52.71558 5.08997 35955 ft 445 kts 266°
2026-05-05 12:31 52.71352 4.98792 35957 ft 445 kts 266°
2026-05-05 12:31 52.71136 4.88568 35955 ft 447 kts 265°
2026-05-05 12:32 52.70911 4.78319 35952 ft 447 kts 265°
2026-05-05 12:32 52.70678 4.68074 35952 ft 447 kts 265°
2026-05-05 12:33 52.70436 4.57833 35955 ft 447 kts 265°
2026-05-05 12:33 52.70470 4.47580 35955 ft 450 kts 275°
2026-05-05 12:34 52.71770 4.37460 35960 ft 452 kts 282°
2026-05-05 12:34 52.73425 4.27434 35960 ft 453 kts 283°
2026-05-05 12:35 52.75136 4.17419 35966 ft 453 kts 283°
2026-05-05 12:35 52.76821 4.07395 35966 ft 453 kts 282°
2026-05-05 12:36 52.78480 3.97350 35972 ft 454 kts 282°
2026-05-05 12:36 52.80128 3.87277 35974 ft 454 kts 282°
2026-05-05 12:37 52.81768 3.77191 35982 ft 455 kts 282°
2026-05-05 12:37 52.83402 3.67090 35982 ft 455 kts 282°
2026-05-05 12:38 52.85027 3.56985 35993 ft 455 kts 282°
2026-05-05 12:38 52.86643 3.46872 35995 ft 455 kts 282°
2026-05-05 12:39 52.88253 3.36734 35984 ft 456 kts 282°
2026-05-05 12:39 52.89846 3.26652 35983 ft 456 kts 282°
2026-05-05 12:40 52.91440 3.16494 35987 ft 456 kts 282°
2026-05-05 12:40 52.92892 3.06286 35986 ft 455 kts 280°
2026-05-05 12:41 52.94220 2.96061 35991 ft 455 kts 279°
2026-05-05 12:41 52.95533 2.85853 35990 ft 456 kts 279°
2026-05-05 12:42 52.96859 2.75592 35990 ft 456 kts 279°
2026-05-05 12:42 52.98187 2.65312 35998 ft 456 kts 280°
2026-05-05 12:43 52.99506 2.55042 35993 ft 454 kts 280°
2026-05-05 12:43 53.00815 2.44768 35992 ft 456 kts 280°
2026-05-05 12:44 53.02118 2.34469 35995 ft 456 kts 280°
2026-05-05 12:44 53.03412 2.24158 35992 ft 456 kts 280°
2026-05-05 12:45 53.04698 2.13840 35995 ft 456 kts 280°
2026-05-05 12:45 53.05973 2.03522 35997 ft 456 kts 279°
2026-05-05 12:46 53.07240 1.93177 36000 ft 457 kts 280°
2026-05-05 12:46 53.08501 1.82806 35998 ft 458 kts 280°
2026-05-05 12:47 53.09753 1.72428 35998 ft 458 kts 279°
2026-05-05 12:47 53.10997 1.62044 35999 ft 458 kts 279°
2026-05-05 12:48 53.12023 1.53408 35998 ft 458 kts 279°
2026-05-05 12:48 53.13451 1.41301 35999 ft 459 kts 279°
2026-05-05 12:49 53.14673 1.30849 35998 ft 460 kts 279°
2026-05-05 12:49 53.15690 1.22087 36002 ft 460 kts 279°
2026-05-05 12:50 53.16896 1.11619 36002 ft 460 kts 279°
2026-05-05 12:50 53.18091 1.01157 35999 ft 460 kts 279°
2026-05-05 12:51 53.19280 0.90660 35996 ft 461 kts 279°
2026-05-05 12:51 53.20462 0.80140 35994 ft 462 kts 279°
2026-05-05 12:52 53.21634 0.69625 35994 ft 462 kts 279°
2026-05-05 12:52 53.22798 0.59090 35993 ft 462 kts 279°
2026-05-05 12:53 53.23945 0.48621 35991 ft 462 kts 279°
2026-05-05 12:53 53.25098 0.38001 35990 ft 462 kts 279°
2026-05-05 12:54 53.26787 0.22270 35989 ft 459 kts 279°
2026-05-05 12:55 53.27901 0.11787 35989 ft 459 kts 279°
2026-05-05 12:55 53.29011 0.01251 35990 ft 460 kts 278°
2026-05-05 12:56 53.30109 -0.09277 35995 ft 461 kts 279°
2026-05-05 12:56 53.31202 -0.19856 35997 ft 462 kts 279°
2026-05-05 12:57 53.32286 -0.30438 35998 ft 462 kts 279°
2026-05-05 12:57 53.33362 -0.41033 35995 ft 462 kts 279°
2026-05-05 12:58 53.34427 -0.51615 35995 ft 462 kts 279°
2026-05-05 12:58 53.35484 -0.62233 35994 ft 462 kts 278°
2026-05-05 12:59 53.36532 -0.72838 35991 ft 462 kts 278°
2026-05-05 12:59 53.37571 -0.83452 35992 ft 462 kts 278°
2026-05-05 13:00 53.39111 -0.99373 35995 ft 462 kts 278°
2026-05-05 13:01 53.41128 -1.20594 36001 ft 461 kts 278°
2026-05-05 13:01 53.42115 -1.31152 36003 ft 461 kts 278°
2026-05-05 13:02 53.43099 -1.41782 36004 ft 461 kts 278°
2026-05-05 13:02 53.44068 -1.52349 36008 ft 461 kts 278°
2026-05-05 13:03 53.45032 -1.62968 36007 ft 461 kts 278°
2026-05-05 13:03 53.45988 -1.73598 36019 ft 461 kts 277°
2026-05-05 13:04 53.46931 -1.84189 36017 ft 460 kts 278°
2026-05-05 13:04 53.47866 -1.94819 36024 ft 461 kts 277°
2026-05-05 13:05 53.48792 -2.05459 36021 ft 460 kts 277°
2026-05-05 13:05 53.49707 -2.16078 36023 ft 459 kts 277°
2026-05-05 13:06 53.50613 -2.26715 36028 ft 460 kts 277°
2026-05-05 13:06 53.51508 -2.37333 36033 ft 459 kts 277°
2026-05-05 13:07 53.52387 -2.47879 36019 ft 459 kts 277°
2026-05-05 13:07 53.53265 -2.58521 36031 ft 459 kts 277°
2026-05-05 13:08 53.54129 -2.69113 36039 ft 456 kts 277°
2026-05-05 13:08 53.54982 -2.79682 36038 ft 457 kts 276°
2026-05-05 13:09 53.55824 -2.90248 36048 ft 455 kts 276°
2026-05-05 13:09 53.56655 -3.00790 36046 ft 455 kts 277°
2026-05-05 13:10 53.57480 -3.11389 36047 ft 457 kts 276°
2026-05-05 13:10 53.58294 -3.21970 36048 ft 456 kts 276°
2026-05-05 13:11 53.59100 -3.32564 36052 ft 457 kts 276°
2026-05-05 13:11 53.59897 -3.43168 36046 ft 456 kts 276°
2026-05-05 13:12 53.60683 -3.53754 36040 ft 456 kts 276°
2026-05-05 13:12 53.61461 -3.64363 36039 ft 457 kts 276°
2026-05-05 13:13 53.62047 -3.75007 36054 ft 456 kts 274°
2026-05-05 13:13 53.62459 -3.85675 36054 ft 457 kts 273°
2026-05-05 13:14 53.62855 -3.96353 36059 ft 456 kts 273°
2026-05-05 13:14 53.63261 -4.06955 36058 ft 457 kts 273°
2026-05-05 13:15 53.63674 -4.17633 36065 ft 456 kts 273°
2026-05-05 13:15 53.64078 -4.28279 36063 ft 454 kts 273°
2026-05-05 13:16 53.64471 -4.38906 36065 ft 455 kts 273°
2026-05-05 13:16 53.64855 -4.49539 36067 ft 454 kts 272°
2026-05-05 13:17 53.65228 -4.60173 36063 ft 455 kts 272°
2026-05-05 13:17 53.65592 -4.70801 36064 ft 453 kts 272°
2026-05-05 13:18 53.65945 -4.81389 36079 ft 452 kts 272°
2026-05-05 13:18 53.66290 -4.91972 36071 ft 452 kts 272°
2026-05-05 13:19 53.66630 -5.02560 36077 ft 452 kts 272°
2026-05-05 13:19 53.66960 -5.13142 36076 ft 452 kts 272°
2026-05-05 13:20 53.67276 -5.23734 36085 ft 452 kts 272°
2026-05-05 13:20 53.67578 -5.34324 36082 ft 452 kts 272°
2026-05-05 13:21 53.67914 -5.44899 36081 ft 452 kts 276°
2026-05-05 13:21 53.69398 -5.55172 36080 ft 453 kts 289°
2026-05-05 13:22 53.71753 -5.65046 36073 ft 454 kts 292°
2026-05-05 13:22 53.74262 -5.74835 36071 ft 454 kts 292°
2026-05-05 13:23 53.76770 -5.84633 36080 ft 454 kts 292°
2026-05-05 13:23 53.79247 -5.94453 36093 ft 454 kts 291°
2026-05-05 13:24 53.81688 -6.04227 36074 ft 454 kts 291°
2026-05-05 13:24 53.84135 -6.14084 36086 ft 454 kts 291°
2026-05-05 13:25 53.86571 -6.23936 36072 ft 453 kts 291°
2026-05-05 13:25 53.89000 -6.33800 36075 ft 453 kts 292°
2026-05-05 13:26 53.91421 -6.43674 36082 ft 454 kts 291°
2026-05-05 13:26 53.93835 -6.53562 36079 ft 454 kts 291°
2026-05-05 13:27 53.96242 -6.63469 36080 ft 454 kts 291°
2026-05-05 13:27 53.98640 -6.73382 36081 ft 454 kts 291°
2026-05-05 13:28 54.01028 -6.83301 36088 ft 454 kts 291°
2026-05-05 13:28 54.03412 -6.93246 36080 ft 454 kts 291°
2026-05-05 13:29 54.05786 -7.03196 36087 ft 454 kts 291°
2026-05-05 13:29 54.08149 -7.13146 36082 ft 453 kts 291°
2026-05-05 13:30 54.10502 -7.23102 36089 ft 453 kts 291°
2026-05-05 13:30 54.12846 -7.33063 36083 ft 453 kts 291°
2026-05-05 13:31 54.15184 -7.43044 36089 ft 453 kts 291°
2026-05-05 13:31 54.17512 -7.53033 36089 ft 453 kts 291°
2026-05-05 13:32 54.19818 -7.62968 36090 ft 453 kts 291°
2026-05-05 13:32 54.22131 -7.72985 36088 ft 453 kts 291°
2026-05-05 13:33 54.24435 -7.83007 36091 ft 453 kts 290°
2026-05-05 13:33 54.26729 -7.93034 36092 ft 452 kts 290°
2026-05-05 13:34 54.29011 -8.03059 36093 ft 452 kts 290°
2026-05-05 13:34 54.31286 -8.13099 36094 ft 452 kts 290°
2026-05-05 13:35 54.33552 -8.23148 36097 ft 452 kts 290°
2026-05-05 13:35 54.35812 -8.33215 36097 ft 452 kts 290°
2026-05-05 13:36 54.38063 -8.43294 36107 ft 452 kts 290°
2026-05-05 13:36 54.40304 -8.53375 36129 ft 452 kts 290°
2026-05-05 13:37 54.42161 -8.61766 36127 ft 452 kts 290°
2026-05-05 13:37 54.44388 -8.71871 36134 ft 452 kts 290°
2026-05-05 13:38 54.46604 -8.81979 36126 ft 452 kts 290°
2026-05-05 13:38 54.48809 -8.92086 36125 ft 451 kts 290°
2026-05-05 13:39 54.51005 -9.02202 36124 ft 451 kts 290°
2026-05-05 13:39 54.53193 -9.12331 36129 ft 451 kts 290°
2026-05-05 13:40 54.55374 -9.22473 36132 ft 452 kts 289°
2026-05-05 13:40 54.57547 -9.32632 36137 ft 452 kts 289°
2026-05-05 13:41 54.59712 -9.42804 36138 ft 452 kts 289°
2026-05-05 13:41 54.61517 -9.53160 36142 ft 451 kts 281°
2026-05-05 13:42 54.62634 -9.63805 36156 ft 451 kts 279°
2026-05-05 13:42 54.63614 -9.74489 36147 ft 450 kts 278°
2026-05-05 13:43 54.64565 -9.85164 36150 ft 450 kts 278°
2026-05-05 13:43 54.65512 -9.95769 36147 ft 450 kts 278°
2026-05-05 13:44 54.66471 -10.06511 36153 ft 450 kts 278°
2026-05-05 13:44 54.67417 -10.17191 36154 ft 450 kts 278°
2026-05-05 13:45 54.68347 -10.27803 36159 ft 450 kts 278°
2026-05-05 13:45 54.69272 -10.38481 36160 ft 448 kts 278°
2026-05-05 13:46 54.70186 -10.49138 36157 ft 448 kts 278°
2026-05-05 13:46 54.71089 -10.59789 36159 ft 448 kts 278°
2026-05-05 13:47 54.71984 -10.70454 36163 ft 448 kts 278°
2026-05-05 13:47 54.72869 -10.81118 36162 ft 448 kts 278°
2026-05-05 13:48 54.73745 -10.91788 36165 ft 448 kts 278°
2026-05-05 13:48 54.74609 -11.02443 36167 ft 447 kts 278°
2026-05-05 13:49 54.75465 -11.13104 36184 ft 447 kts 278°
2026-05-05 13:49 54.76310 -11.23762 36168 ft 447 kts 277°
2026-05-05 13:50 54.77146 -11.34419 36171 ft 447 kts 277°
2026-05-05 13:50 54.77973 -11.45078 36171 ft 447 kts 277°
2026-05-05 13:51 54.78790 -11.55745 36172 ft 447 kts 277°
2026-05-05 13:51 54.79597 -11.66411 36173 ft 447 kts 277°
2026-05-05 13:52 54.80396 -11.77089 36173 ft 446 kts 277°
2026-05-05 13:52 54.81179 -11.87688 36176 ft 446 kts 277°
2026-05-05 13:53 54.81959 -11.98368 36176 ft 446 kts 277°
2026-05-05 13:53 54.82728 -12.09046 36182 ft 446 kts 277°
2026-05-05 13:54 54.83488 -12.19721 36183 ft 446 kts 277°
2026-05-05 13:54 54.84239 -12.30398 36183 ft 446 kts 277°
2026-05-05 13:55 54.84980 -12.41080 36184 ft 446 kts 277°
2026-05-05 13:55 54.85711 -12.51763 36188 ft 446 kts 277°
2026-05-05 13:56 54.86433 -12.62451 36185 ft 446 kts 276°
2026-05-05 13:56 54.87146 -12.73136 36193 ft 445 kts 276°
2026-05-05 13:57 54.87848 -12.83812 36191 ft 445 kts 276°
2026-05-05 13:57 54.88541 -12.94497 36194 ft 445 kts 276°
2026-05-05 13:58 54.89225 -13.05189 36195 ft 445 kts 276°
2026-05-05 13:58 54.89899 -13.15880 36194 ft 445 kts 276°
2026-05-05 13:59 54.90893 -13.31922 36197 ft 445 kts 276°
2026-05-05 14:00 54.91757 -13.46174 36199 ft 445 kts 276°
2026-05-05 14:00 54.92502 -13.58686 36197 ft 445 kts 276°
2026-05-05 14:01 54.93126 -13.69324 36207 ft 445 kts 276°
2026-05-05 14:01 54.93744 -13.80038 36203 ft 446 kts 275°
2026-05-05 14:02 54.94353 -13.90766 36204 ft 446 kts 275°
2026-05-05 14:02 54.94953 -14.01502 36205 ft 446 kts 275°
2026-05-05 14:03 54.95543 -14.12239 36208 ft 446 kts 275°
2026-05-05 14:03 54.96124 -14.22977 36211 ft 446 kts 275°
2026-05-05 14:04 54.96696 -14.33717 36200 ft 446 kts 275°
2026-05-05 14:04 54.97258 -14.44464 36209 ft 446 kts 275°
2026-05-05 14:05 54.97811 -14.55228 36214 ft 446 kts 275°
2026-05-05 14:05 54.98355 -14.65991 36214 ft 446 kts 275°
2026-05-05 14:06 54.98889 -14.76761 36210 ft 446 kts 275°
2026-05-05 14:06 54.99414 -14.87532 36215 ft 446 kts 275°
2026-05-05 14:07 55.00091 -14.98278 36214 ft 447 kts 282°
2026-05-05 14:07 55.01932 -15.08610 36219 ft 447 kts 289°
2026-05-05 14:08 55.04160 -15.18738 36218 ft 448 kts 291°
2026-05-05 14:08 55.06452 -15.28832 36223 ft 448 kts 291°
2026-05-05 14:09 55.08710 -15.38877 36219 ft 448 kts 290°
2026-05-05 14:09 55.10959 -15.49012 36219 ft 448 kts 290°
2026-05-05 14:10 55.13192 -15.59161 36219 ft 448 kts 290°
2026-05-05 14:10 55.15419 -15.69331 36223 ft 448 kts 290°
2026-05-05 14:11 55.17638 -15.79513 36225 ft 448 kts 290°
2026-05-05 14:11 55.19848 -15.89703 36225 ft 448 kts 290°
2026-05-05 14:12 55.22050 -15.99907 36225 ft 448 kts 290°
2026-05-05 14:12 55.24243 -16.10118 36237 ft 448 kts 290°
2026-05-05 14:13 55.26428 -16.20346 36219 ft 448 kts 290°
2026-05-05 14:13 55.28606 -16.30586 36230 ft 448 kts 290°
2026-05-05 14:14 55.30777 -16.40851 36230 ft 449 kts 290°
2026-05-05 14:14 55.32940 -16.51124 36234 ft 449 kts 290°
2026-05-05 14:15 55.35093 -16.61405 36236 ft 448 kts 290°
2026-05-05 14:15 55.37238 -16.71703 36235 ft 448 kts 290°
2026-05-05 14:16 55.39374 -16.82007 36235 ft 448 kts 290°
2026-05-05 14:16 55.41502 -16.92328 36236 ft 449 kts 290°
2026-05-05 14:17 55.43624 -17.02674 36235 ft 450 kts 290°
2026-05-05 14:17 55.45727 -17.12977 36238 ft 450 kts 290°
2026-05-05 14:18 55.47834 -17.23353 36239 ft 450 kts 290°
2026-05-05 14:18 55.49933 -17.33747 36237 ft 450 kts 290°
2026-05-05 14:19 55.52022 -17.44146 36243 ft 450 kts 290°
2026-05-05 14:19 55.54105 -17.54567 36243 ft 450 kts 289°
2026-05-05 14:20 55.56177 -17.64992 36241 ft 450 kts 289°
2026-05-05 14:20 55.58241 -17.75431 36243 ft 450 kts 289°
2026-05-05 14:21 55.60296 -17.85880 36247 ft 450 kts 289°
2026-05-05 14:21 55.62342 -17.96339 36246 ft 450 kts 289°
2026-05-05 14:22 55.64379 -18.06810 36247 ft 450 kts 289°
2026-05-05 14:22 55.66406 -18.17284 36247 ft 450 kts 289°
2026-05-05 14:23 55.68412 -18.27709 36245 ft 450 kts 289°
2026-05-05 14:23 55.70426 -18.38228 36252 ft 451 kts 289°
2026-05-05 14:24 55.72429 -18.48751 36260 ft 450 kts 289°
2026-05-05 14:24 55.74423 -18.59286 36254 ft 450 kts 289°
2026-05-05 14:25 55.76407 -18.69824 36255 ft 450 kts 289°
2026-05-05 14:25 55.78382 -18.80374 36256 ft 450 kts 289°
2026-05-05 14:26 55.80348 -18.90935 36246 ft 450 kts 289°
2026-05-05 14:26 55.82305 -19.01506 36256 ft 450 kts 289°
2026-05-05 14:27 55.84255 -19.12097 36257 ft 450 kts 289°
2026-05-05 14:27 55.86195 -19.22697 36256 ft 450 kts 289°
2026-05-05 14:28 55.88125 -19.33304 36261 ft 450 kts 289°
2026-05-05 14:28 55.89721 -19.42115 36260 ft 449 kts 289°
2026-05-05 14:29 55.91631 -19.52720 36261 ft 450 kts 289°
2026-05-05 14:29 55.93532 -19.63343 36262 ft 450 kts 289°
2026-05-05 14:30 55.95427 -19.73986 36266 ft 450 kts 289°
2026-05-05 14:30 55.97312 -19.84634 36266 ft 450 kts 289°
2026-05-05 14:31 55.99182 -19.95297 36265 ft 450 kts 287°
2026-05-05 14:31 56.00238 -20.06334 36266 ft 452 kts 277°
2026-05-05 14:32 56.00760 -20.17544 36265 ft 453 kts 276°
2026-05-05 14:32 56.01173 -20.28794 36256 ft 454 kts 276°
2026-05-05 14:33 56.01573 -20.39991 36267 ft 455 kts 276°
2026-05-05 14:33 56.01981 -20.51282 36269 ft 455 kts 276°
2026-05-05 14:34 56.02386 -20.62584 36272 ft 455 kts 276°
2026-05-05 14:34 56.02780 -20.73810 36274 ft 456 kts 276°
2026-05-05 14:35 56.03166 -20.85112 36269 ft 456 kts 276°
2026-05-05 14:35 56.03541 -20.96433 36266 ft 457 kts 276°
2026-05-05 14:36 56.03907 -21.07780 36267 ft 457 kts 276°
2026-05-05 14:36 56.04262 -21.19136 36269 ft 457 kts 276°
2026-05-05 14:37 56.04607 -21.30490 36275 ft 457 kts 276°
2026-05-05 14:37 56.04942 -21.41852 36265 ft 457 kts 276°
2026-05-05 14:38 56.05266 -21.53218 36268 ft 458 kts 276°
2026-05-05 14:38 56.05581 -21.64624 36270 ft 460 kts 276°
2026-05-05 14:39 56.05886 -21.76050 36270 ft 460 kts 276°
2026-05-05 14:39 56.06180 -21.87477 36269 ft 460 kts 276°
2026-05-05 14:40 56.06464 -21.98908 36267 ft 460 kts 276°
2026-05-05 14:40 56.06737 -22.10343 36267 ft 460 kts 276°
2026-05-05 14:41 56.07000 -22.21784 36270 ft 461 kts 276°
2026-05-05 14:41 56.07253 -22.33248 36269 ft 461 kts 276°
2026-05-05 14:42 56.07495 -22.44711 36266 ft 461 kts 276°
2026-05-05 14:42 56.07726 -22.56181 36266 ft 461 kts 276°
2026-05-05 14:43 56.07947 -22.67655 36270 ft 461 kts 275°
2026-05-05 14:43 56.08157 -22.79130 36263 ft 461 kts 276°
2026-05-05 14:44 56.08355 -22.90542 36268 ft 462 kts 276°
2026-05-05 14:44 56.08545 -23.02045 36268 ft 462 kts 276°
2026-05-05 14:45 56.08724 -23.13545 36268 ft 462 kts 276°
2026-05-05 14:45 56.08892 -23.25050 36268 ft 462 kts 276°
2026-05-05 14:46 56.09049 -23.36556 36268 ft 462 kts 275°
2026-05-05 14:46 56.09196 -23.48072 36268 ft 463 kts 276°
2026-05-05 14:47 56.09332 -23.59606 36271 ft 463 kts 276°
2026-05-05 14:47 56.09458 -23.71143 36270 ft 463 kts 275°
2026-05-05 14:48 56.09572 -23.82689 36270 ft 463 kts 275°
2026-05-05 14:48 56.09676 -23.94227 36273 ft 464 kts 275°
2026-05-05 14:49 56.09769 -24.05774 36270 ft 464 kts 275°
2026-05-05 14:49 56.09852 -24.17318 36269 ft 464 kts 275°
2026-05-05 14:50 56.09923 -24.28864 36267 ft 463 kts 275°
2026-05-05 14:50 56.09984 -24.40406 36273 ft 463 kts 275°
2026-05-05 14:51 56.10035 -24.51951 36273 ft 463 kts 275°
2026-05-05 14:51 56.10074 -24.63496 36244 ft 464 kts 275°
2026-05-05 14:52 56.10103 -24.75047 36276 ft 464 kts 275°
2026-05-05 14:52 56.10121 -24.86528 36276 ft 464 kts 275°
2026-05-05 14:53 56.10128 -24.98089 36276 ft 464 kts 275°
2026-05-05 14:53 56.10125 -25.09651 36276 ft 464 kts 275°
2026-05-05 14:54 56.10110 -25.21215 36279 ft 464 kts 275°
2026-05-05 14:54 56.10085 -25.32784 36280 ft 465 kts 275°
2026-05-05 14:55 56.10048 -25.44357 36280 ft 465 kts 275°
2026-05-05 14:55 56.10001 -25.55931 36282 ft 465 kts 275°
2026-05-05 14:56 56.09943 -25.67509 36279 ft 465 kts 274°
2026-05-05 14:56 56.09875 -25.79090 36279 ft 465 kts 274°
2026-05-05 14:57 56.09795 -25.90671 36279 ft 465 kts 274°
2026-05-05 14:57 56.09705 -26.02253 36282 ft 465 kts 274°
2026-05-05 14:58 56.09604 -26.13834 36288 ft 465 kts 274°
2026-05-05 14:58 56.09493 -26.25346 36286 ft 465 kts 274°
2026-05-05 14:59 56.09370 -26.36933 36280 ft 465 kts 274°
2026-05-05 14:59 56.09236 -26.48520 36290 ft 465 kts 274°
2026-05-05 15:00 56.09116 -26.58229 36286 ft 466 kts 274°
2026-05-05 15:00 56.08937 -26.71696 36293 ft 466 kts 274°
2026-05-05 15:01 56.08770 -26.83289 36283 ft 465 kts 273°
2026-05-05 15:01 56.08593 -26.94861 36290 ft 465 kts 273°
2026-05-05 15:02 56.08405 -27.06428 36291 ft 465 kts 273°
2026-05-05 15:02 56.08207 -27.17988 36283 ft 464 kts 273°
2026-05-05 15:03 56.07998 -27.29537 36284 ft 464 kts 272°
2026-05-05 15:03 56.07778 -27.41079 36285 ft 464 kts 272°
2026-05-05 15:04 56.07548 -27.52617 36300 ft 464 kts 272°
2026-05-05 15:04 56.07307 -27.64150 36283 ft 464 kts 272°
2026-05-05 15:05 56.06925 -27.81450 36285 ft 463 kts 272°
2026-05-05 15:06 56.06657 -27.92964 36289 ft 463 kts 272°
2026-05-05 15:06 56.06380 -28.04461 36290 ft 462 kts 272°
2026-05-05 15:07 56.06093 -28.15879 36291 ft 463 kts 271°
2026-05-05 15:07 56.05794 -28.27367 36292 ft 461 kts 271°
2026-05-05 15:08 56.05485 -28.38827 36265 ft 461 kts 271°
2026-05-05 15:08 56.05166 -28.50274 36292 ft 460 kts 271°
2026-05-05 15:09 56.04840 -28.61698 36292 ft 460 kts 271°
2026-05-05 15:09 56.04499 -28.73113 36295 ft 460 kts 271°
2026-05-05 15:10 56.04147 -28.84529 36296 ft 460 kts 271°
2026-05-05 15:10 56.03786 -28.95942 36292 ft 460 kts 270°
2026-05-05 15:11 56.03415 -29.07353 36291 ft 459 kts 270°
2026-05-05 15:11 56.03034 -29.18746 36298 ft 459 kts 270°
2026-05-05 15:12 56.02642 -29.30126 36301 ft 459 kts 270°
2026-05-05 15:12 56.02241 -29.41504 36300 ft 459 kts 270°
2026-05-05 15:13 56.01828 -29.52882 36300 ft 459 kts 270°
2026-05-05 15:13 56.01405 -29.64255 36297 ft 459 kts 269°
2026-05-05 15:14 56.00972 -29.75626 36371 ft 459 kts 269°
2026-05-05 15:14 56.00752 -29.81307 36582 ft 457 kts 269°
2026-05-05 15:14 56.00529 -29.86967 36802 ft 456 kts 269°
2026-05-05 15:14 56.00304 -29.92611 36992 ft 455 kts 269°
2026-05-05 15:15 56.00121 -29.98244 37158 ft 453 kts 272°
2026-05-05 15:15 56.00207 -30.03853 37313 ft 451 kts 276°
2026-05-05 15:15 56.00373 -30.09453 37474 ft 451 kts 276°
2026-05-05 15:15 56.00575 -30.15033 37634 ft 450 kts 277°
2026-05-05 15:16 56.00794 -30.20606 37785 ft 449 kts 277°
2026-05-05 15:16 56.01018 -30.26171 37940 ft 449 kts 277°
2026-05-05 15:16 56.01241 -30.31730 38083 ft 449 kts 277°
2026-05-05 15:16 56.01455 -30.37220 38223 ft 448 kts 277°
2026-05-05 15:17 56.01670 -30.42855 38300 ft 449 kts 277°
2026-05-05 15:17 56.02079 -30.53918 38301 ft 449 kts 276°
2026-05-05 15:18 56.02475 -30.65041 38299 ft 448 kts 276°
2026-05-05 15:18 56.02862 -30.76166 38300 ft 448 kts 276°
2026-05-05 15:19 56.03239 -30.87290 38299 ft 448 kts 276°
2026-05-05 15:19 56.03547 -30.96612 38299 ft 448 kts 276°
2026-05-05 15:20 56.03904 -31.07668 38301 ft 449 kts 275°
2026-05-05 15:20 56.04253 -31.18833 38293 ft 449 kts 275°
2026-05-05 15:21 56.04592 -31.29998 38296 ft 450 kts 275°
2026-05-05 15:21 56.04922 -31.41163 38299 ft 450 kts 275°
2026-05-05 15:22 56.05241 -31.52334 38289 ft 450 kts 275°
2026-05-05 15:22 56.05551 -31.63509 38297 ft 450 kts 275°
2026-05-05 15:23 56.05850 -31.74680 38292 ft 450 kts 274°
2026-05-05 15:23 56.06140 -31.85888 38291 ft 451 kts 274°
2026-05-05 15:24 56.06420 -31.97102 38286 ft 451 kts 274°
2026-05-05 15:24 56.06689 -32.08318 38289 ft 451 kts 274°
2026-05-05 15:25 56.06949 -32.19537 38285 ft 451 kts 274°
2026-05-05 15:25 56.07198 -32.30756 38278 ft 451 kts 274°
2026-05-05 15:26 56.07438 -32.41979 38283 ft 452 kts 273°
2026-05-05 15:26 56.07666 -32.53151 38285 ft 453 kts 273°
2026-05-05 15:27 56.07886 -32.64409 38269 ft 453 kts 273°
2026-05-05 15:27 56.08095 -32.75671 38269 ft 453 kts 272°
2026-05-05 15:28 56.08294 -32.86938 38273 ft 453 kts 272°
2026-05-05 15:28 56.08483 -32.98201 38264 ft 453 kts 272°
2026-05-05 15:29 56.08662 -33.09470 38271 ft 453 kts 272°
2026-05-05 15:29 56.08831 -33.20748 38263 ft 453 kts 272°
2026-05-05 15:30 56.08989 -33.32037 38268 ft 454 kts 272°
2026-05-05 15:30 56.09136 -33.43339 38273 ft 453 kts 272°
2026-05-05 15:31 56.09274 -33.54628 38260 ft 454 kts 271°
2026-05-05 15:31 56.09403 -33.65946 38254 ft 454 kts 271°
2026-05-05 15:32 56.09520 -33.77254 38244 ft 455 kts 271°
2026-05-05 15:32 56.09628 -33.88570 38259 ft 460 kts 270°
2026-05-05 15:33 56.09725 -34.00073 38251 ft 462 kts 270°
2026-05-05 15:33 56.09813 -34.11582 38256 ft 462 kts 270°
2026-05-05 15:34 56.09889 -34.23077 38254 ft 462 kts 270°
2026-05-05 15:34 56.09956 -34.34583 38252 ft 462 kts 270°
2026-05-05 15:35 56.10011 -34.46086 38251 ft 462 kts 269°
2026-05-05 15:35 56.10057 -34.57630 38259 ft 465 kts 269°
2026-05-05 15:36 56.10090 -34.69249 38239 ft 467 kts 269°
2026-05-05 15:36 56.10114 -34.80892 38230 ft 467 kts 269°
2026-05-05 15:37 56.10126 -34.92537 38241 ft 468 kts 268°
2026-05-05 15:37 56.10127 -35.04183 38232 ft 467 kts 269°
2026-05-05 15:38 56.10118 -35.15822 38244 ft 468 kts 268°
2026-05-05 15:38 56.10098 -35.27469 38231 ft 468 kts 268°
2026-05-05 15:39 56.10067 -35.39133 38227 ft 468 kts 268°
2026-05-05 15:39 56.10024 -35.50790 38227 ft 468 kts 268°
2026-05-05 15:40 56.09971 -35.62444 38233 ft 468 kts 268°
2026-05-05 15:40 56.09906 -35.74124 38204 ft 469 kts 268°
2026-05-05 15:41 56.09831 -35.85731 38211 ft 469 kts 267°
2026-05-05 15:41 56.09745 -35.97424 38204 ft 470 kts 266°
2026-05-05 15:42 56.09647 -36.09126 38199 ft 470 kts 266°
2026-05-05 15:42 56.09538 -36.20821 38201 ft 470 kts 266°
2026-05-05 15:43 56.09419 -36.32517 38195 ft 470 kts 266°
2026-05-05 15:43 56.09288 -36.44214 38195 ft 470 kts 266°
2026-05-05 15:44 56.09146 -36.55903 38194 ft 470 kts 265°
2026-05-05 15:44 56.08992 -36.67633 38187 ft 472 kts 265°
2026-05-05 15:45 56.08827 -36.79389 38183 ft 472 kts 265°
2026-05-05 15:45 56.08651 -36.91150 38184 ft 472 kts 265°
2026-05-05 15:46 56.08464 -37.02908 38182 ft 472 kts 265°
2026-05-05 15:46 56.08266 -37.14663 38176 ft 472 kts 265°
2026-05-05 15:47 56.08056 -37.26421 38177 ft 472 kts 265°
2026-05-05 15:47 56.07835 -37.38172 38167 ft 472 kts 265°
2026-05-05 15:48 56.07604 -37.49920 38168 ft 472 kts 265°
2026-05-05 15:48 56.07360 -37.61675 38167 ft 473 kts 265°
2026-05-05 15:49 56.07105 -37.73450 38154 ft 473 kts 265°
2026-05-05 15:49 56.06839 -37.85225 38154 ft 474 kts 264°
2026-05-05 15:50 56.06562 -37.97007 38147 ft 474 kts 264°
2026-05-05 15:50 56.06272 -38.08816 38145 ft 476 kts 264°
2026-05-05 15:51 56.05971 -38.20628 38132 ft 476 kts 264°
2026-05-05 15:51 56.05659 -38.32460 38133 ft 475 kts 263°
2026-05-05 15:52 56.05335 -38.44277 38130 ft 475 kts 263°
2026-05-05 15:52 56.05000 -38.56089 38124 ft 476 kts 263°
2026-05-05 15:53 56.04653 -38.67925 38122 ft 478 kts 263°
2026-05-05 15:53 56.04293 -38.79802 38113 ft 479 kts 263°
2026-05-05 15:54 56.03925 -38.91608 38112 ft 479 kts 263°
2026-05-05 15:54 56.03543 -39.03488 38102 ft 478 kts 263°
2026-05-05 15:55 56.03149 -39.15361 38099 ft 478 kts 263°
2026-05-05 15:55 56.02744 -39.27234 38099 ft 479 kts 263°
2026-05-05 15:56 56.02327 -39.39113 38092 ft 479 kts 262°
2026-05-05 15:56 56.01898 -39.51006 38093 ft 479 kts 262°
2026-05-05 15:57 56.01457 -39.62908 38083 ft 481 kts 262°
2026-05-05 15:57 56.01003 -39.74838 38085 ft 481 kts 262°
2026-05-05 15:58 56.00538 -39.86765 38076 ft 481 kts 262°
2026-05-05 15:58 56.00061 -39.98690 38104 ft 481 kts 261°
2026-05-05 15:59 55.99447 -40.10581 38072 ft 481 kts 260°
2026-05-05 15:59 55.98726 -40.22458 38063 ft 481 kts 259°
2026-05-05 16:00 55.97995 -40.34325 38065 ft 481 kts 259°
2026-05-05 16:00 55.97266 -40.46194 38061 ft 481 kts 259°
2026-05-05 16:01 55.96532 -40.58068 38065 ft 481 kts 259°
2026-05-05 16:01 55.95788 -40.69955 38060 ft 482 kts 259°
2026-05-05 16:02 55.95032 -40.81838 38048 ft 482 kts 259°
2026-05-05 16:02 55.94269 -40.93634 38045 ft 482 kts 259°
2026-05-05 16:03 55.93489 -41.05502 38045 ft 482 kts 259°
2026-05-05 16:03 55.92698 -41.17364 38041 ft 482 kts 259°
2026-05-05 16:04 55.91896 -41.29222 38040 ft 482 kts 259°
2026-05-05 16:04 55.91083 -41.41067 38045 ft 481 kts 259°
2026-05-05 16:05 55.90259 -41.52906 38037 ft 481 kts 259°
2026-05-05 16:05 55.89422 -41.64753 38024 ft 482 kts 258°
2026-05-05 16:06 55.88572 -41.76617 38023 ft 483 kts 258°
2026-05-05 16:06 55.87710 -41.88483 38032 ft 483 kts 258°
2026-05-05 16:07 55.86837 -42.00352 38036 ft 483 kts 258°
2026-05-05 16:07 55.85953 -42.12203 38022 ft 483 kts 258°
2026-05-05 16:08 55.85058 -42.24045 38019 ft 483 kts 258°
2026-05-05 16:08 55.84152 -42.35880 38017 ft 483 kts 258°
2026-05-05 16:09 55.83383 -42.45793 38010 ft 483 kts 258°
2026-05-05 16:09 55.82456 -42.57612 38016 ft 483 kts 258°
2026-05-05 16:10 55.81523 -42.69363 38006 ft 484 kts 258°
2026-05-05 16:10 55.80570 -42.81204 37993 ft 484 kts 258°
2026-05-05 16:11 55.79608 -42.93036 37993 ft 484 kts 258°
2026-05-05 16:12 55.77647 -43.16686 37990 ft 484 kts 257°
2026-05-05 16:13 55.75134 -43.46195 37976 ft 483 kts 257°
2026-05-05 16:13 55.74111 -43.57962 37977 ft 482 kts 257°
2026-05-05 16:14 55.72025 -43.81548 37970 ft 485 kts 257°
2026-05-05 16:15 55.69890 -44.05158 37961 ft 485 kts 257°
2026-05-05 16:16 55.67710 -44.28732 37946 ft 485 kts 257°
2026-05-05 16:17 55.66054 -44.46309 37938 ft 485 kts 256°
2026-05-05 16:18 55.64365 -44.63957 37943 ft 485 kts 256°
2026-05-05 16:19 55.62647 -44.81614 37925 ft 486 kts 256°
2026-05-05 16:19 55.60904 -44.99271 37916 ft 486 kts 256°
2026-05-05 16:20 55.58540 -45.22779 37899 ft 486 kts 256°
2026-05-05 16:22 55.55528 -45.52065 37893 ft 484 kts 256°
2026-05-05 16:23 55.53067 -45.75470 37875 ft 486 kts 256°
2026-05-05 16:23 55.51186 -45.93067 37889 ft 487 kts 256°
2026-05-05 16:24 55.49920 -46.04776 37859 ft 485 kts 255°
2026-05-05 16:25 55.48011 -46.22215 37848 ft 485 kts 255°
2026-05-05 16:25 55.46068 -46.39711 37848 ft 485 kts 255°
2026-05-05 16:26 55.43441 -46.63003 37833 ft 484 kts 255°
2026-05-05 16:27 55.42112 -46.74624 37825 ft 484 kts 255°
2026-05-05 16:27 55.40773 -46.86229 37814 ft 484 kts 255°
2026-05-05 16:28 55.39423 -46.97831 37801 ft 484 kts 255°
2026-05-05 16:28 55.38062 -47.09423 37799 ft 484 kts 255°
2026-05-05 16:29 55.36690 -47.21009 37817 ft 484 kts 255°
2026-05-05 16:29 55.35310 -47.32564 37799 ft 483 kts 255°
2026-05-05 16:30 55.33920 -47.44095 37797 ft 482 kts 255°
2026-05-05 16:30 55.32520 -47.55619 37799 ft 482 kts 254°
2026-05-05 16:31 55.31108 -47.67143 37775 ft 484 kts 254°
2026-05-05 16:31 55.29680 -47.78692 37771 ft 484 kts 254°
2026-05-05 16:32 55.28298 -47.90255 37724 ft 484 kts 256°
2026-05-05 16:32 55.28160 -47.96168 37657 ft 491 kts 276°
2026-05-05 16:32 55.28553 -48.02066 37716 ft 487 kts 271°
2026-05-05 16:33 55.28791 -48.07977 37870 ft 486 kts 270°
2026-05-05 16:33 55.28954 -48.13880 37885 ft 485 kts 264°
2026-05-05 16:33 55.28701 -48.17988 37776 ft 481 kts 256°
2026-05-05 16:34 55.26821 -48.28890 37740 ft 478 kts 246°
2026-05-05 16:34 55.24511 -48.39678 37736 ft 478 kts 245°
2026-05-05 16:35 55.22152 -48.50533 37740 ft 478 kts 245°
2026-05-05 16:35 55.19821 -48.61440 37725 ft 478 kts 246°
2026-05-05 16:36 55.17504 -48.72358 37719 ft 479 kts 246°
2026-05-05 16:36 55.15180 -48.83275 37710 ft 479 kts 246°
2026-05-05 16:37 55.12844 -48.94184 37705 ft 479 kts 246°
2026-05-05 16:37 55.10498 -49.05070 37725 ft 479 kts 246°
2026-05-05 16:38 55.08148 -49.15928 37697 ft 477 kts 245°
2026-05-05 16:38 55.05794 -49.26736 37687 ft 477 kts 245°
2026-05-05 16:39 55.03429 -49.37532 37681 ft 476 kts 245°
2026-05-05 16:39 55.01075 -49.48235 37681 ft 476 kts 245°
2026-05-05 16:40 54.98694 -49.58996 37671 ft 476 kts 246°
2026-05-05 16:40 54.96307 -49.69731 37668 ft 474 kts 246°
2026-05-05 16:41 54.93920 -49.80414 37661 ft 474 kts 246°
2026-05-05 16:41 54.91517 -49.91110 37662 ft 475 kts 246°
2026-05-05 16:42 54.89102 -50.01807 37656 ft 475 kts 246°
2026-05-05 16:42 54.86680 -50.12492 37656 ft 476 kts 244°
2026-05-05 16:43 54.84247 -50.23161 37639 ft 475 kts 246°
2026-05-05 16:43 54.81806 -50.33812 37640 ft 475 kts 244°
2026-05-05 16:44 54.79353 -50.44458 37630 ft 475 kts 246°
2026-05-05 16:44 54.76895 -50.55086 37634 ft 475 kts 245°
2026-05-05 16:45 54.74427 -50.65695 37641 ft 475 kts 245°
2026-05-05 16:45 54.71949 -50.76281 37620 ft 474 kts 245°
2026-05-05 16:46 54.69467 -50.86843 37620 ft 474 kts 245°
2026-05-05 16:46 54.66975 -50.97395 37613 ft 475 kts 244°
2026-05-05 16:47 54.64468 -51.07957 37609 ft 476 kts 244°
2026-05-05 16:47 54.61948 -51.18517 37601 ft 476 kts 246°
2026-05-05 16:48 54.59424 -51.29055 37581 ft 474 kts 245°
2026-05-05 16:48 54.56919 -51.39466 37581 ft 473 kts 245°
2026-05-05 16:49 54.54388 -51.49927 37592 ft 473 kts 246°
2026-05-05 16:49 54.51849 -51.60369 37587 ft 473 kts 245°
2026-05-05 16:50 54.49302 -51.70805 37566 ft 473 kts 245°
2026-05-05 16:50 54.46746 -51.81213 37584 ft 472 kts 245°
2026-05-05 16:51 54.44182 -51.91606 37583 ft 472 kts 244°
2026-05-05 16:51 54.41611 -52.01981 37561 ft 472 kts 244°
2026-05-05 16:52 54.39031 -52.12343 37557 ft 473 kts 245°
2026-05-05 16:52 54.36438 -52.22708 37551 ft 473 kts 244°
2026-05-05 16:53 54.33837 -52.33062 37549 ft 472 kts 244°
2026-05-05 16:53 54.31235 -52.43373 37546 ft 471 kts 245°
2026-05-05 16:54 54.28622 -52.53676 37541 ft 471 kts 245°
2026-05-05 16:54 54.26000 -52.63965 37539 ft 471 kts 245°
2026-05-05 16:55 54.23372 -52.74231 37538 ft 471 kts 244°
2026-05-05 16:55 54.20738 -52.84476 37537 ft 470 kts 245°
2026-05-05 16:56 54.18102 -52.94676 37538 ft 469 kts 245°
2026-05-05 16:56 54.15906 -53.03134 37529 ft 470 kts 244°
2026-05-05 16:57 54.13256 -53.13309 37530 ft 469 kts 245°
2026-05-05 16:57 54.10596 -53.23475 37526 ft 470 kts 245°
2026-05-05 16:58 54.07923 -53.33643 37522 ft 470 kts 245°
2026-05-05 16:58 54.05240 -53.43805 37519 ft 470 kts 245°
2026-05-05 16:59 54.02549 -53.53953 37520 ft 470 kts 245°
2026-05-05 16:59 53.99848 -53.64092 37520 ft 471 kts 244°
2026-05-05 17:00 53.97139 -53.74215 37522 ft 470 kts 244°
2026-05-05 17:00 53.94424 -53.84316 37523 ft 470 kts 245°
2026-05-05 17:01 53.91703 -53.94394 37515 ft 470 kts 245°
2026-05-05 17:01 53.88972 -54.04468 37518 ft 470 kts 244°
2026-05-05 17:02 53.86234 -54.14523 37517 ft 470 kts 244°
2026-05-05 17:02 53.83487 -54.24565 37517 ft 470 kts 244°
2026-05-05 17:03 53.80735 -54.34582 37517 ft 468 kts 244°
2026-05-05 17:03 53.77983 -54.44554 37512 ft 468 kts 244°
2026-05-05 17:04 53.75225 -54.54505 37512 ft 468 kts 244°
2026-05-05 17:04 53.72458 -54.64447 37514 ft 468 kts 244°
2026-05-05 17:05 53.69682 -54.74380 37515 ft 468 kts 244°
2026-05-05 17:05 53.66902 -54.84283 37511 ft 466 kts 244°
2026-05-05 17:06 53.64126 -54.94133 37512 ft 465 kts 244°
2026-05-05 17:06 53.61345 -55.03954 37512 ft 465 kts 244°
2026-05-05 17:07 53.58555 -55.13770 37514 ft 465 kts 244°
2026-05-05 17:07 53.55756 -55.23572 37509 ft 465 kts 244°
2026-05-05 17:08 53.52950 -55.33362 37511 ft 465 kts 244°
2026-05-05 17:08 53.50136 -55.43136 37509 ft 465 kts 244°
2026-05-05 17:09 53.47310 -55.52914 37512 ft 466 kts 244°
2026-05-05 17:09 53.44488 -55.62637 37499 ft 466 kts 244°
2026-05-05 17:10 53.41641 -55.72405 37498 ft 466 kts 244°
2026-05-05 17:10 53.38788 -55.82148 37486 ft 465 kts 244°
2026-05-05 17:11 53.35934 -55.91861 37484 ft 465 kts 244°
2026-05-05 17:11 53.33075 -56.01552 37484 ft 465 kts 244°
2026-05-05 17:12 53.30206 -56.11235 37479 ft 465 kts 243°
2026-05-05 17:12 53.27329 -56.20903 37477 ft 465 kts 244°
2026-05-05 17:13 53.24450 -56.30541 37477 ft 462 kts 244°
2026-05-05 17:13 53.21575 -56.40126 37478 ft 461 kts 244°
2026-05-05 17:14 53.18694 -56.49695 37481 ft 461 kts 244°
2026-05-05 17:14 53.15808 -56.59242 37478 ft 461 kts 243°
2026-05-05 17:15 53.12916 -56.68768 37486 ft 461 kts 243°
2026-05-05 17:15 53.09911 -56.78153 37491 ft 458 kts 237°
2026-05-05 17:16 53.06281 -56.86852 37499 ft 458 kts 235°
2026-05-05 17:16 53.02514 -56.95378 37503 ft 457 kts 234°
2026-05-05 17:17 52.98722 -57.03854 37513 ft 457 kts 234°
2026-05-05 17:17 52.94931 -57.12329 37508 ft 458 kts 234°
2026-05-05 17:18 52.91164 -57.20748 37519 ft 457 kts 234°
2026-05-05 17:18 52.87369 -57.29211 37520 ft 458 kts 234°
2026-05-05 17:19 52.83569 -57.37659 37531 ft 458 kts 234°
2026-05-05 17:19 52.79759 -57.46099 37530 ft 458 kts 234°
2026-05-05 17:20 52.75946 -57.54517 37538 ft 457 kts 234°
2026-05-05 17:20 52.72127 -57.62920 37544 ft 458 kts 234°
2026-05-05 17:21 52.68301 -57.71309 37544 ft 457 kts 234°
2026-05-05 17:22 52.62554 -57.83862 37568 ft 458 kts 234°
2026-05-05 17:22 52.58716 -57.92208 37562 ft 457 kts 234°
2026-05-05 17:23 52.54875 -58.00536 37548 ft 457 kts 234°
2026-05-05 17:23 52.51028 -58.08849 37556 ft 457 kts 234°
2026-05-05 17:24 52.47173 -58.17152 37568 ft 457 kts 234°
2026-05-05 17:24 52.43315 -58.25434 37571 ft 457 kts 234°
2026-05-05 17:25 52.39450 -58.33704 37578 ft 457 kts 234°
2026-05-05 17:25 52.35581 -58.41956 37578 ft 457 kts 234°
2026-05-05 17:26 52.31709 -58.50189 37581 ft 457 kts 234°
2026-05-05 17:26 52.27855 -58.58357 37573 ft 457 kts 234°
2026-05-05 17:27 52.23940 -58.66625 37586 ft 457 kts 234°
2026-05-05 17:27 52.20046 -58.74825 37592 ft 457 kts 234°
2026-05-05 17:28 52.16173 -58.82953 37599 ft 457 kts 234°
2026-05-05 17:28 52.12269 -58.91121 37601 ft 457 kts 234°
2026-05-05 17:29 52.08334 -58.99327 37602 ft 457 kts 234°
2026-05-05 17:29 52.04424 -59.07454 37605 ft 456 kts 234°
2026-05-05 17:30 52.00516 -59.15554 37607 ft 456 kts 234°
2026-05-05 17:30 51.96625 -59.23590 37613 ft 456 kts 234°
2026-05-05 17:31 51.92711 -59.31650 37602 ft 454 kts 234°
2026-05-05 17:31 51.88799 -59.39680 37606 ft 454 kts 234°
2026-05-05 17:32 51.84885 -59.47690 37606 ft 454 kts 234°
2026-05-05 17:32 51.80963 -59.55691 37603 ft 454 kts 234°
2026-05-05 17:33 51.77037 -59.63675 37603 ft 454 kts 234°
2026-05-05 17:33 51.73109 -59.71637 37603 ft 452 kts 234°
2026-05-05 17:34 51.69188 -59.79562 37602 ft 452 kts 234°
2026-05-05 17:34 51.65267 -59.87461 37598 ft 452 kts 234°
2026-05-05 17:35 51.61339 -59.95351 37600 ft 452 kts 234°
2026-05-05 17:35 51.57406 -60.03226 37597 ft 451 kts 234°
2026-05-05 17:36 51.53479 -60.11064 37603 ft 450 kts 234°
2026-05-05 17:36 51.49551 -60.18879 37603 ft 449 kts 234°
2026-05-05 17:37 51.45622 -60.26676 37605 ft 449 kts 234°
2026-05-05 17:37 51.41688 -60.34460 37605 ft 449 kts 234°
2026-05-05 17:38 51.37750 -60.42225 37614 ft 449 kts 234°
2026-05-05 17:38 51.33806 -60.49979 37619 ft 449 kts 234°
2026-05-05 17:39 51.29857 -60.57721 37619 ft 449 kts 233°
2026-05-05 17:39 51.25906 -60.65444 37634 ft 449 kts 233°
2026-05-05 17:40 51.21953 -60.73145 37620 ft 449 kts 233°
2026-05-05 17:40 51.18015 -60.80796 37636 ft 450 kts 233°
2026-05-05 17:41 51.14014 -60.88545 37636 ft 450 kts 233°
2026-05-05 17:41 51.10062 -60.96177 37639 ft 450 kts 233°
2026-05-05 17:42 51.06076 -61.03851 37633 ft 450 kts 233°
2026-05-05 17:42 51.02082 -61.11518 37646 ft 451 kts 233°
2026-05-05 17:43 50.98078 -61.19181 37648 ft 451 kts 233°
2026-05-05 17:43 50.94069 -61.26830 37650 ft 451 kts 233°
2026-05-05 17:44 50.90053 -61.34472 37673 ft 451 kts 233°
2026-05-05 17:44 50.86688 -61.40856 37662 ft 450 kts 233°
2026-05-05 17:45 50.82679 -61.48441 37665 ft 449 kts 233°
2026-05-05 17:45 50.78665 -61.56015 37671 ft 449 kts 233°
2026-05-05 17:46 50.74648 -61.63572 37672 ft 449 kts 233°
2026-05-05 17:46 50.70654 -61.71062 37672 ft 448 kts 233°
2026-05-05 17:47 50.66642 -61.78564 37674 ft 447 kts 233°
2026-05-05 17:47 50.62633 -61.86041 37687 ft 447 kts 233°
2026-05-05 17:48 50.58620 -61.93504 37683 ft 447 kts 233°
2026-05-05 17:48 50.54608 -62.00944 37661 ft 445 kts 233°
2026-05-05 17:49 50.50617 -62.08318 37690 ft 440 kts 233°
2026-05-05 17:49 50.46663 -62.15605 37695 ft 437 kts 233°
2026-05-05 17:50 50.42714 -62.22867 37701 ft 438 kts 233°
2026-05-05 17:50 50.38760 -62.30118 37701 ft 438 kts 233°
2026-05-05 17:51 50.34803 -62.37349 37705 ft 435 kts 233°
2026-05-05 17:51 50.30882 -62.44494 37698 ft 431 kts 233°
2026-05-05 17:52 50.26978 -62.51592 37699 ft 430 kts 233°
2026-05-05 17:52 50.23070 -62.58679 37701 ft 430 kts 233°
2026-05-05 17:53 50.19156 -62.65756 37694 ft 430 kts 233°
2026-05-05 17:53 50.15241 -62.72816 37699 ft 430 kts 233°
2026-05-05 17:54 50.11317 -62.79871 37697 ft 430 kts 233°
2026-05-05 17:54 50.07393 -62.86908 37698 ft 430 kts 232°
2026-05-05 17:55 50.03464 -62.93934 37695 ft 430 kts 232°
2026-05-05 17:55 49.99542 -63.00927 37687 ft 427 kts 232°
2026-05-05 17:56 49.95647 -63.07853 37703 ft 425 kts 232°
2026-05-05 17:56 49.91758 -63.14753 37685 ft 425 kts 232°
2026-05-05 17:57 49.87866 -63.21641 37691 ft 424 kts 232°
2026-05-05 17:57 49.83983 -63.28493 37695 ft 423 kts 232°
2026-05-05 17:58 49.80104 -63.35318 37700 ft 421 kts 232°
2026-05-05 17:58 49.76230 -63.42119 37691 ft 421 kts 232°
2026-05-05 17:59 49.72352 -63.48909 37690 ft 421 kts 232°
2026-05-05 17:59 49.68469 -63.55689 37692 ft 421 kts 232°
2026-05-05 18:00 49.64570 -63.62480 37819 ft 423 kts 231°
2026-05-05 18:00 49.62619 -63.65872 38011 ft 423 kts 231°
2026-05-05 18:00 49.60665 -63.69264 38177 ft 423 kts 231°
2026-05-05 18:00 49.58708 -63.72655 38305 ft 423 kts 231°
2026-05-05 18:01 49.56750 -63.76046 38428 ft 424 kts 231°
2026-05-05 18:01 49.54789 -63.79436 38532 ft 424 kts 231°
2026-05-05 18:01 49.52826 -63.82826 38614 ft 425 kts 231°
2026-05-05 18:02 49.48915 -63.89568 38753 ft 426 kts 231°
2026-05-05 18:02 49.44953 -63.96378 38903 ft 428 kts 230°
2026-05-05 18:03 49.40981 -64.03188 39102 ft 428 kts 230°
2026-05-05 18:03 49.36999 -64.09995 39252 ft 429 kts 230°
2026-05-05 18:04 49.33005 -64.16808 39403 ft 430 kts 230°
2026-05-05 18:04 49.31005 -64.20211 39509 ft 429 kts 230°
2026-05-05 18:04 49.29008 -64.23604 39602 ft 429 kts 230°
2026-05-05 18:05 49.25006 -64.30394 39636 ft 429 kts 230°
2026-05-05 18:05 49.21009 -64.37159 39620 ft 428 kts 230°
2026-05-05 18:06 49.17011 -64.43907 39608 ft 428 kts 230°
2026-05-05 18:06 49.13012 -64.50637 39608 ft 427 kts 229°
2026-05-05 18:07 49.09019 -64.57340 39617 ft 426 kts 229°
2026-05-05 18:07 49.05025 -64.64029 39624 ft 426 kts 229°
2026-05-05 18:08 49.01028 -64.70705 39616 ft 426 kts 229°
2026-05-05 18:08 48.97026 -64.77372 39619 ft 426 kts 229°
2026-05-05 18:09 48.93049 -64.83981 39618 ft 426 kts 229°
2026-05-05 18:09 48.89046 -64.90617 39628 ft 426 kts 229°
2026-05-05 18:10 48.85033 -64.97251 39619 ft 426 kts 229°
2026-05-05 18:10 48.81018 -65.03874 39617 ft 426 kts 229°
2026-05-05 18:11 48.76991 -65.10497 39650 ft 428 kts 229°
2026-05-05 18:11 48.72952 -65.17125 39646 ft 428 kts 229°
2026-05-05 18:12 48.68905 -65.23747 39645 ft 428 kts 229°
2026-05-05 18:12 48.64858 -65.30354 39642 ft 428 kts 229°
2026-05-05 18:13 48.60806 -65.36951 39642 ft 428 kts 229°
2026-05-05 18:13 48.56755 -65.43530 39647 ft 427 kts 229°
2026-05-05 18:14 48.52702 -65.50094 39650 ft 427 kts 229°
2026-05-05 18:14 48.48653 -65.56640 39647 ft 426 kts 229°
2026-05-05 18:15 48.44604 -65.63167 39651 ft 426 kts 228°
2026-05-05 18:15 48.40581 -65.69636 39649 ft 426 kts 228°
2026-05-05 18:16 48.36527 -65.76138 39643 ft 426 kts 228°
2026-05-05 18:16 48.32469 -65.82631 39646 ft 426 kts 228°
2026-05-05 18:17 48.28408 -65.89111 39635 ft 426 kts 229°
2026-05-05 18:17 48.24354 -65.95564 39645 ft 424 kts 228°
2026-05-05 18:18 48.20301 -66.02000 39644 ft 424 kts 228°
2026-05-05 18:18 48.16246 -66.08424 39638 ft 424 kts 228°
2026-05-05 18:19 48.12191 -66.14832 39645 ft 424 kts 228°
2026-05-05 18:19 48.08130 -66.21234 39647 ft 424 kts 229°
2026-05-05 18:20 48.04064 -66.27629 39652 ft 424 kts 228°
2026-05-05 18:20 47.99993 -66.34014 39655 ft 424 kts 228°
2026-05-05 18:21 47.95919 -66.40390 39655 ft 424 kts 228°
2026-05-05 18:21 47.91847 -66.46745 39652 ft 423 kts 228°
2026-05-05 18:22 47.87783 -66.53074 39643 ft 422 kts 228°
2026-05-05 18:22 47.83724 -66.59377 39646 ft 420 kts 229°
2026-05-05 18:23 47.79724 -66.65575 39642 ft 417 kts 229°
2026-05-05 18:23 47.75712 -66.71779 39640 ft 415 kts 229°
2026-05-05 18:24 47.71717 -66.77940 39646 ft 414 kts 229°
2026-05-05 18:24 47.67726 -66.84084 39644 ft 413 kts 229°
2026-05-05 18:25 47.63732 -66.90217 39648 ft 413 kts 229°
2026-05-05 18:25 47.59737 -66.96334 39642 ft 413 kts 229°
2026-05-05 18:26 47.55739 -67.02443 39654 ft 413 kts 229°
2026-05-05 18:26 47.51737 -67.08544 39657 ft 413 kts 229°
2026-05-05 18:27 47.47732 -67.14635 39655 ft 413 kts 229°
2026-05-05 18:27 47.43725 -67.20715 39659 ft 413 kts 229°
2026-05-05 18:28 47.37794 -67.29689 39660 ft 412 kts 229°
2026-05-05 18:28 47.33791 -67.35785 39661 ft 412 kts 229°
2026-05-05 18:29 47.29836 -67.41833 39664 ft 412 kts 229°
2026-05-05 18:29 47.25884 -67.47862 39658 ft 412 kts 229°
2026-05-05 18:30 47.21903 -67.53917 39668 ft 411 kts 229°
2026-05-05 18:30 47.17925 -67.59950 39669 ft 410 kts 228°
2026-05-05 18:31 47.13968 -67.65935 39667 ft 408 kts 228°
2026-05-05 18:31 47.10092 -67.71786 39672 ft 407 kts 228°
2026-05-05 18:32 47.06184 -67.77673 39672 ft 406 kts 228°
2026-05-05 18:32 47.02442 -67.83298 39673 ft 405 kts 228°
2026-05-05 18:33 46.98506 -67.89200 39673 ft 405 kts 228°
2026-05-05 18:33 46.94571 -67.95089 39673 ft 405 kts 228°
2026-05-05 18:34 46.91257 -68.00039 39678 ft 405 kts 228°
2026-05-05 18:34 46.87315 -68.05913 39669 ft 404 kts 228°
2026-05-05 18:35 46.83373 -68.11773 39671 ft 404 kts 228°
2026-05-05 18:35 46.79459 -68.17580 39676 ft 404 kts 228°
2026-05-05 18:36 46.75515 -68.23419 39670 ft 404 kts 228°
2026-05-05 18:36 46.71571 -68.29243 39674 ft 404 kts 228°
2026-05-05 18:37 46.67623 -68.35062 39672 ft 404 kts 228°
2026-05-05 18:37 46.63670 -68.40875 39676 ft 404 kts 228°
2026-05-05 18:38 46.59716 -68.46677 39673 ft 404 kts 228°
2026-05-05 18:38 46.55761 -68.52466 39675 ft 403 kts 228°
2026-05-05 18:39 46.51818 -68.58227 39672 ft 401 kts 227°
2026-05-05 18:39 46.47886 -68.63958 39668 ft 400 kts 227°
2026-05-05 18:40 46.43965 -68.69661 39678 ft 400 kts 227°
2026-05-05 18:40 46.40033 -68.75369 39675 ft 400 kts 227°
2026-05-05 18:41 46.36100 -68.81064 39677 ft 400 kts 227°
2026-05-05 18:41 46.32191 -68.86714 39683 ft 400 kts 227°
2026-05-05 18:42 46.28250 -68.92396 39671 ft 400 kts 227°
2026-05-05 18:42 46.24311 -68.98065 39668 ft 400 kts 227°
2026-05-05 18:43 46.20362 -69.03735 39678 ft 401 kts 227°
2026-05-05 18:43 46.16405 -69.09404 39678 ft 401 kts 227°
2026-05-05 18:44 46.12445 -69.15066 39676 ft 401 kts 227°
2026-05-05 18:44 46.08483 -69.20719 39658 ft 401 kts 227°
2026-05-05 18:45 46.04515 -69.26367 39680 ft 401 kts 227°
2026-05-05 18:45 46.00540 -69.32015 39672 ft 401 kts 227°
2026-05-05 18:46 45.96562 -69.37652 39674 ft 402 kts 227°
2026-05-05 18:46 45.92581 -69.43283 39671 ft 402 kts 227°
2026-05-05 18:47 45.88596 -69.48908 39673 ft 402 kts 227°
2026-05-05 18:47 45.84601 -69.54535 39674 ft 403 kts 227°
2026-05-05 18:48 45.80602 -69.60156 39675 ft 403 kts 227°
2026-05-05 18:48 45.76599 -69.65769 39672 ft 403 kts 227°
2026-05-05 18:49 45.72590 -69.71381 39664 ft 404 kts 227°
2026-05-05 18:49 45.68568 -69.76998 39671 ft 404 kts 226°
2026-05-05 18:50 45.64540 -69.82611 39680 ft 404 kts 226°
2026-05-05 18:50 45.60510 -69.88215 39691 ft 404 kts 226°
2026-05-05 18:51 45.56475 -69.93815 39679 ft 405 kts 226°
2026-05-05 18:51 45.52453 -69.99385 39680 ft 406 kts 226°
2026-05-05 18:52 45.48398 -70.04988 39686 ft 406 kts 226°
2026-05-05 18:52 45.44339 -70.10584 39694 ft 406 kts 226°
2026-05-05 18:53 45.40277 -70.16174 39691 ft 406 kts 226°
2026-05-05 18:53 45.36225 -70.21737 39693 ft 407 kts 226°
2026-05-05 18:54 45.32149 -70.27322 39695 ft 407 kts 226°
2026-05-05 18:54 45.28073 -70.32896 39708 ft 407 kts 226°
2026-05-05 18:55 45.24006 -70.38445 39684 ft 405 kts 226°
2026-05-05 18:55 45.19932 -70.43992 39693 ft 406 kts 226°
2026-05-05 18:56 45.15852 -70.49538 39693 ft 407 kts 226°
2026-05-05 18:56 45.11765 -70.55078 39699 ft 406 kts 226°
2026-05-05 18:57 45.07680 -70.60606 39700 ft 407 kts 226°
2026-05-05 18:57 45.03589 -70.66130 39706 ft 406 kts 226°
2026-05-05 18:58 44.99498 -70.71643 39705 ft 406 kts 226°
2026-05-05 18:58 44.95406 -70.77146 39703 ft 406 kts 226°
2026-05-05 18:59 44.91310 -70.82641 39705 ft 406 kts 226°
2026-05-05 18:59 44.87205 -70.88140 39709 ft 407 kts 226°
2026-05-05 19:00 44.83095 -70.93632 39712 ft 407 kts 226°
2026-05-05 19:00 44.78983 -70.99116 39707 ft 407 kts 226°
2026-05-05 19:01 44.74870 -71.04590 39705 ft 408 kts 226°
2026-05-05 19:01 44.70743 -71.10072 39698 ft 408 kts 225°
2026-05-05 19:02 44.66614 -71.15545 39694 ft 408 kts 225°
2026-05-05 19:02 44.62481 -71.21010 39689 ft 407 kts 225°
2026-05-05 19:03 44.58359 -71.26453 39726 ft 407 kts 225°
2026-05-05 19:03 44.54225 -71.31898 39704 ft 408 kts 225°
2026-05-05 19:04 44.50088 -71.37336 39706 ft 408 kts 225°
2026-05-05 19:04 44.45946 -71.42770 39694 ft 408 kts 225°
2026-05-05 19:05 44.41828 -71.48160 39690 ft 409 kts 225°
2026-05-05 19:05 44.37668 -71.53598 39692 ft 410 kts 225°
2026-05-05 19:06 44.33497 -71.59036 39693 ft 410 kts 225°
2026-05-05 19:06 44.29324 -71.64466 39732 ft 410 kts 225°
2026-05-05 19:07 44.25147 -71.69891 39706 ft 410 kts 225°
2026-05-05 19:07 44.21107 -71.75496 39699 ft 409 kts 232°
2026-05-05 19:08 44.17620 -71.81740 39699 ft 408 kts 234°
2026-05-05 19:08 44.14249 -71.88104 39695 ft 408 kts 235°
2026-05-05 19:09 44.10892 -71.94488 39685 ft 408 kts 234°
2026-05-05 19:09 44.07524 -72.00852 39593 ft 409 kts 234°
2026-05-05 19:10 44.05834 -72.04032 39369 ft 409 kts 234°
2026-05-05 19:10 44.04140 -72.07211 39143 ft 408 kts 234°
2026-05-05 19:10 44.02451 -72.10376 38902 ft 407 kts 234°
2026-05-05 19:10 44.00763 -72.13536 38674 ft 407 kts 234°
2026-05-05 19:11 43.99080 -72.16683 38451 ft 405 kts 234°
2026-05-05 19:11 43.97401 -72.19819 38163 ft 404 kts 234°
2026-05-05 19:11 43.95722 -72.22950 37884 ft 405 kts 234°
2026-05-05 19:11 43.94038 -72.26088 37601 ft 406 kts 234°
2026-05-05 19:12 43.92346 -72.29239 37311 ft 407 kts 234°
2026-05-05 19:12 43.90652 -72.32392 36919 ft 408 kts 234°
2026-05-05 19:12 43.88951 -72.35551 36550 ft 410 kts 234°
2026-05-05 19:12 43.87245 -72.38719 36179 ft 411 kts 234°
2026-05-05 19:13 43.85531 -72.41896 35825 ft 412 kts 235°
2026-05-05 19:13 43.83811 -72.45083 35460 ft 414 kts 235°
2026-05-05 19:13 43.82083 -72.48279 35105 ft 415 kts 235°
2026-05-05 19:13 43.80349 -72.51483 34763 ft 417 kts 235°
2026-05-05 19:14 43.78607 -72.54700 34422 ft 418 kts 235°
2026-05-05 19:14 43.76859 -72.57924 34085 ft 420 kts 235°
2026-05-05 19:14 43.75104 -72.61157 33750 ft 421 kts 236°
2026-05-05 19:14 43.73341 -72.64401 33376 ft 422 kts 236°
2026-05-05 19:15 43.71596 -72.67603 33000 ft 423 kts 235°
2026-05-05 19:15 43.69822 -72.70860 32629 ft 425 kts 235°
2026-05-05 19:15 43.68045 -72.74122 32260 ft 425 kts 235°
2026-05-05 19:15 43.66262 -72.77389 31876 ft 427 kts 235°
2026-05-05 19:16 43.64468 -72.80673 31512 ft 429 kts 235°
2026-05-05 19:16 43.62669 -72.83965 31161 ft 430 kts 235°
2026-05-05 19:16 43.60866 -72.87258 30807 ft 431 kts 234°
2026-05-05 19:16 43.59058 -72.90555 30459 ft 431 kts 234°
2026-05-05 19:17 43.57244 -72.93858 30119 ft 432 kts 234°
2026-05-05 19:17 43.55427 -72.97164 29789 ft 433 kts 234°
2026-05-05 19:17 43.53601 -73.00482 29396 ft 435 kts 234°
2026-05-05 19:17 43.51772 -73.03802 29003 ft 434 kts 234°
2026-05-05 19:18 43.49948 -73.07108 28616 ft 432 kts 234°
2026-05-05 19:18 43.48131 -73.10395 28232 ft 430 kts 234°
2026-05-05 19:18 43.46327 -73.13657 27861 ft 427 kts 234°
2026-05-05 19:18 43.44534 -73.16897 27486 ft 424 kts 234°
2026-05-05 19:19 43.42751 -73.20115 27119 ft 422 kts 234°
2026-05-05 19:19 43.40973 -73.23322 26746 ft 420 kts 234°
2026-05-05 19:19 43.39207 -73.26503 26387 ft 418 kts 234°
2026-05-05 19:19 43.37448 -73.29669 26015 ft 415 kts 234°
2026-05-05 19:20 43.35698 -73.32815 25686 ft 414 kts 234°
2026-05-05 19:20 43.33955 -73.35945 25338 ft 411 kts 234°
2026-05-05 19:20 43.32220 -73.39057 24997 ft 409 kts 234°
2026-05-05 19:20 43.30492 -73.42154 24660 ft 407 kts 234°
2026-05-05 19:21 43.28775 -73.45227 24333 ft 405 kts 234°
2026-05-05 19:21 43.27064 -73.48286 24087 ft 403 kts 234°
2026-05-05 19:21 43.25362 -73.51326 23861 ft 401 kts 234°
2026-05-05 19:21 43.24236 -73.53336 23700 ft 400 kts 234°
2026-05-05 19:22 43.22503 -73.56316 23465 ft 400 kts 230°
2026-05-05 19:22 43.19718 -73.59635 23142 ft 403 kts 217°
2026-05-05 19:22 43.18059 -73.60905 22963 ft 406 kts 208°
2026-05-05 19:22 43.14450 -73.62378 22607 ft 413 kts 195°
2026-05-05 19:23 43.12534 -73.62811 22429 ft 413 kts 194°
2026-05-05 19:23 43.09698 -73.63373 22168 ft 411 kts 193°
2026-05-05 19:23 43.06869 -73.63921 21908 ft 410 kts 193°
2026-05-05 19:23 43.04056 -73.64473 21634 ft 408 kts 193°
2026-05-05 19:24 43.01253 -73.65028 21382 ft 406 kts 193°
2026-05-05 19:24 42.98462 -73.65584 21148 ft 404 kts 193°
2026-05-05 19:24 42.95687 -73.66138 20891 ft 402 kts 193°
2026-05-05 19:24 42.92927 -73.66690 20628 ft 400 kts 193°
2026-05-05 19:25 42.90179 -73.67240 20388 ft 398 kts 193°
2026-05-05 19:25 42.87443 -73.67788 20139 ft 396 kts 193°
2026-05-05 19:25 42.84759 -73.68325 19867 ft 395 kts 193°
2026-05-05 19:25 42.82045 -73.68867 19626 ft 395 kts 193°
2026-05-05 19:26 42.79327 -73.69411 19383 ft 394 kts 193°
2026-05-05 19:26 42.76624 -73.69950 19135 ft 392 kts 193°
2026-05-05 19:26 42.73929 -73.70487 18896 ft 390 kts 193°
2026-05-05 19:26 42.71244 -73.71021 18665 ft 389 kts 193°
2026-05-05 19:27 42.68570 -73.71553 18426 ft 388 kts 193°
2026-05-05 19:27 42.65906 -73.72084 18188 ft 387 kts 193°
2026-05-05 19:27 42.63244 -73.72613 17946 ft 387 kts 193°
2026-05-05 19:27 42.60582 -73.73142 17684 ft 386 kts 193°
2026-05-05 19:28 42.57927 -73.73668 17412 ft 384 kts 193°
2026-05-05 19:28 42.55290 -73.74190 17144 ft 382 kts 193°
2026-05-05 19:28 42.52663 -73.74710 16885 ft 380 kts 193°
2026-05-05 19:28 42.50052 -73.75226 16628 ft 379 kts 193°
2026-05-05 19:29 42.47452 -73.75740 16372 ft 377 kts 193°
2026-05-05 19:29 42.44928 -73.76239 16113 ft 376 kts 194°
2026-05-05 19:29 42.42274 -73.76764 15856 ft 375 kts 194°
2026-05-05 19:29 42.39699 -73.77272 15600 ft 374 kts 194°
2026-05-05 19:30 42.37130 -73.77778 15348 ft 372 kts 194°
2026-05-05 19:30 42.34575 -73.78281 15111 ft 370 kts 194°
2026-05-05 19:30 42.32034 -73.78781 14861 ft 368 kts 194°
2026-05-05 19:30 42.29504 -73.79278 14632 ft 367 kts 194°
2026-05-05 19:31 42.26987 -73.79772 14377 ft 364 kts 194°
2026-05-05 19:31 42.24483 -73.80263 14140 ft 363 kts 194°
2026-05-05 19:31 42.21989 -73.80751 13897 ft 362 kts 194°
2026-05-05 19:31 42.19502 -73.81238 13661 ft 361 kts 195°
2026-05-05 19:32 42.17021 -73.81722 13412 ft 359 kts 195°
2026-05-05 19:32 42.14556 -73.82203 13147 ft 357 kts 195°
2026-05-05 19:32 42.12105 -73.82683 12879 ft 355 kts 195°
2026-05-05 19:32 42.09668 -73.83161 12625 ft 353 kts 194°
2026-05-05 19:33 42.07240 -73.83636 12359 ft 352 kts 195°
2026-05-05 19:33 42.04825 -73.84108 12100 ft 350 kts 194°
2026-05-05 19:33 42.02419 -73.84576 11845 ft 349 kts 194°
2026-05-05 19:33 42.00055 -73.85037 11604 ft 347 kts 194°
2026-05-05 19:34 41.97641 -73.85507 11342 ft 346 kts 194°
2026-05-05 19:34 41.95298 -73.85962 11109 ft 344 kts 194°
2026-05-05 19:34 41.92933 -73.86421 10864 ft 343 kts 194°
2026-05-05 19:35 41.88235 -73.87332 10377 ft 339 kts 194°
2026-05-05 19:35 41.85901 -73.87787 10125 ft 338 kts 195°
2026-05-05 19:35 41.83579 -73.88236 9891 ft 336 kts 194°
2026-05-05 19:35 41.81295 -73.88674 9650 ft 326 kts 195°
2026-05-05 19:36 41.79085 -73.89098 9388 ft 315 kts 195°
2026-05-05 19:36 41.76947 -73.89508 9130 ft 305 kts 195°
2026-05-05 19:36 41.74876 -73.89907 8876 ft 296 kts 194°
2026-05-05 19:36 41.72868 -73.90294 8612 ft 287 kts 194°
2026-05-05 19:37 41.70922 -73.90667 8357 ft 279 kts 194°
2026-05-05 19:37 41.69027 -73.91033 8102 ft 272 kts 194°
2026-05-05 19:37 41.67180 -73.91393 7850 ft 265 kts 194°
2026-05-05 19:37 41.65375 -73.91743 7595 ft 259 kts 194°
2026-05-05 19:38 41.63608 -73.92084 7341 ft 254 kts 193°
2026-05-05 19:38 41.61866 -73.92423 7104 ft 252 kts 193°
2026-05-05 19:38 41.60130 -73.92759 6906 ft 252 kts 193°
2026-05-05 19:38 41.58403 -73.93095 6740 ft 251 kts 193°
2026-05-05 19:39 41.56657 -73.93435 6576 ft 265 kts 193°
2026-05-05 19:39 41.54700 -73.93826 6424 ft 303 kts 192°
2026-05-05 19:39 41.52537 -73.94247 6252 ft 323 kts 192°
2026-05-05 19:39 41.50293 -73.94670 6075 ft 325 kts 191°
2026-05-05 19:40 41.48052 -73.95090 5898 ft 325 kts 191°
2026-05-05 19:40 41.45816 -73.95510 5724 ft 324 kts 191°
2026-05-05 19:40 41.43587 -73.95934 5546 ft 323 kts 191°
2026-05-05 19:40 41.41362 -73.96359 5371 ft 322 kts 191°
2026-05-05 19:41 41.39144 -73.96782 5200 ft 322 kts 190°
2026-05-05 19:41 41.36927 -73.97201 5050 ft 322 kts 190°
2026-05-05 19:41 41.34717 -73.97617 4908 ft 320 kts 190°
2026-05-05 19:41 41.32513 -73.98036 4770 ft 320 kts 191°
2026-05-05 19:42 41.30317 -73.98459 4632 ft 320 kts 191°
2026-05-05 19:42 41.28113 -73.98869 4487 ft 320 kts 191°
2026-05-05 19:42 41.25909 -73.99279 4318 ft 320 kts 191°
2026-05-05 19:42 41.23703 -73.99705 4168 ft 321 kts 191°
2026-05-05 19:43 41.21494 -74.00131 4022 ft 321 kts 191°
2026-05-05 19:43 41.19289 -74.00551 3877 ft 320 kts 191°
2026-05-05 19:43 41.17092 -74.00965 3740 ft 316 kts 192°
2026-05-05 19:43 41.14924 -74.01376 3638 ft 315 kts 191°
2026-05-05 19:44 41.12755 -74.01788 3508 ft 314 kts 191°
2026-05-05 19:44 41.10616 -74.02197 3429 ft 316 kts 191°
2026-05-05 19:44 41.08443 -74.02606 3347 ft 314 kts 191°
2026-05-05 19:44 41.06284 -74.03015 3273 ft 313 kts 191°
2026-05-05 19:45 41.04122 -74.03428 3203 ft 315 kts 191°
2026-05-05 19:45 41.01922 -74.03849 3128 ft 315 kts 191°
2026-05-05 19:45 40.99783 -74.04252 3064 ft 315 kts 190°
2026-05-05 19:45 40.97609 -74.04657 2985 ft 313 kts 191°
2026-05-05 19:46 40.95506 -74.05048 2866 ft 297 kts 191°
2026-05-05 19:46 40.93508 -74.05426 2735 ft 283 kts 191°
2026-05-05 19:46 40.91604 -74.05782 2623 ft 269 kts 191°
2026-05-05 19:46 40.89790 -74.06128 2494 ft 257 kts 191°
2026-05-05 19:47 40.88094 -74.06445 2479 ft 242 kts 191°
2026-05-05 19:47 40.86475 -74.06747 2463 ft 228 kts 191°
2026-05-05 19:47 40.84989 -74.07025 2486 ft 207 kts 192°
2026-05-05 19:47 40.83629 -74.07413 2481 ft 193 kts 201°
2026-05-05 19:48 40.82471 -74.08053 2481 ft 168 kts 207°
2026-05-05 19:48 40.81468 -74.08693 2466 ft 151 kts 208°
2026-05-05 19:48 40.80544 -74.09281 2315 ft 146 kts 208°
2026-05-05 19:48 40.79644 -74.09848 2110 ft 145 kts 208°
2026-05-05 19:49 40.78734 -74.10429 1915 ft 146 kts 207°
2026-05-05 19:49 40.78115 -74.10822 1769 ft 146 kts 208°
2026-05-05 19:49 40.76902 -74.11597 1554 ft 146 kts 208°
2026-05-05 19:49 40.75995 -74.12178 1348 ft 144 kts 207°
2026-05-05 19:50 40.75092 -74.12752 1162 ft 144 kts 207°
2026-05-05 19:50 40.74188 -74.13331 999 ft 144 kts 207°
2026-05-05 19:50 40.73293 -74.13905 762 ft 143 kts 206°
2026-05-05 19:50 40.72396 -74.14466 608 ft 143 kts 207°
2026-05-05 19:51 40.71505 -74.15046 420 ft 143 kts 204°
2026-05-05 19:51 40.70618 -74.15618 218 ft 140 kts 204°
2026-05-05 19:51 40.69766 -74.16153 40 ft 132 kts 204°
2026-05-05 19:51 40.69086 -74.16580 25 ft 71 kts 206°
2026-05-05 19:52 40.68812 -74.16777 25 ft 35 kts 213°
2026-05-05 19:52 40.68699 -74.16944 28 ft 10 kts 236°
2026-05-05 19:52 40.68667 -74.17013 29 ft 8 kts 239°
2026-05-05 19:52 40.68636 -74.17079 30 ft 12 kts 240°
2026-05-05 19:53 40.68636 -74.17192 27 ft 13 kts 289°
2026-05-05 19:53 40.68679 -74.17313 29 ft 16 kts 300°
2026-05-05 19:53 40.68738 -74.17456 28 ft 19 kts 297°
2026-05-05 19:53 40.68781 -74.17562 27 ft 0 kts 298°